Weather History for Bakersfield, CA

Change the Weather History Date:

Tuesday, November 19, 2013

  Actual Average Record
Temperature  
Mean Temperature 55 °F 54 °F  
Max Temperature 64 °F 64 °F 89 °F (1917)
Min Temperature 46 °F 43 °F 28 °F (1994)
Degree Days  
Heating Degree Days 10    
Month to date heating degree days 109  
Since 1 July heating degree days 153  
Cooling Degree Days 0    
Month to date cooling degree days 0  
Year to date cooling degree days 2557  
Growing Degree Days 4 (Base 50)    
Moisture  
Dew Point 42 °F    
Average Humidity 63    
Maximum Humidity 77    
Minimum Humidity 48    
Precipitation  
Precipitation 0.00 in 0.02 in 0.54 in (1967)
Month to date precipitation 0.00 0.38  
Year to date precipitation 2.39 5.19  
Since 1 July precipitation 0.03 0.80  
Snow  
Snow 0.00 in - - ()
Month to date snowfall 0.0  
Since 1 July snowfall 0.0  
Since 1 September snowfall 0.0  
Snow Depth 0.00 in    
Sea Level Pressure  
Sea Level Pressure 30.04 in    
Wind  
Wind Speed 4 mph (East)    
Max Wind Speed 8 mph    
Max Gust Speed 12 mph    
Visibility 8 miles    
Events      
T = Trace of Precipitation, MM = Missing Value Source: NWS Daily Summary

Daily Weather History Graph

Daily Weather History Graph

Search for Another Location

Airport:

Trip Planner

Search our weather history database for the weather conditions in past years. The results will help you decide how hot, cold, wet, or windy it might be!

Date:

Astronomy

Nov. 19, 2013 Rise Set
Actual Time 6:35 AM PST 4:47 PM PST
Civil Twilight 6:08 AM PST 5:14 PM PST
Nautical Twilight 5:37 AM PST 5:45 PM PST
Astronomical Twilight 5:07 AM PST 6:15 PM PST
Moon 6:43 PM PST 8:18 AM PST
Length of Visible Light 11h 06m
Length of Day
10h 11m
Waning Gibbous, 95% of the Moon is Illuminated
Nov 19
Waning Gibbous
Nov 25
Last Quarter
Dec 2
New
Dec 9
First Quarter
Dec 17
Full

Hourly Weather History & Observations

Time (PST) Temp. Dew Point Humidity Pressure Visibility Wind Dir Wind Speed Gust Speed Precip Events Conditions
12:54 AM 52.0 °F 39.9 °F 63% 30.07 in 10.0 mi Calm Calm - N/A   Clear
1:54 AM 51.1 °F 42.1 °F 71% 30.07 in 10.0 mi WNW 4.6 mph - N/A   Clear
2:54 AM 48.9 °F 41.0 °F 74% 30.08 in 10.0 mi North 3.5 mph - N/A   Clear
3:54 AM 48.0 °F 39.9 °F 74% 30.08 in 10.0 mi SSE 4.6 mph - N/A   Clear
4:54 AM 48.0 °F 41.0 °F 77% 30.07 in 8.0 mi SE 8.1 mph - N/A   Clear
5:54 AM 46.9 °F 39.9 °F 77% 30.08 in 8.0 mi ESE 4.6 mph - N/A   Clear
6:54 AM 48.0 °F 41.0 °F 77% 30.10 in 6.0 mi East 3.5 mph - N/A   Haze
7:54 AM 50.0 °F 41.0 °F 71% 30.11 in 6.0 mi SE 5.8 mph - N/A   Haze
8:54 AM 53.1 °F 43.0 °F 69% 30.11 in 6.0 mi South 3.5 mph - N/A   Haze
9:54 AM 55.0 °F 44.1 °F 67% 30.12 in 7.0 mi South 4.6 mph - N/A   Clear
10:54 AM 57.0 °F 44.1 °F 62% 30.11 in 7.0 mi Calm Calm - N/A   Clear
11:54 AM 59.0 °F 44.1 °F 58% 30.06 in 8.0 mi NNW 5.8 mph - N/A   Clear
12:54 PM 61.0 °F 44.1 °F 54% 30.03 in 8.0 mi WSW 5.8 mph - N/A   Clear
1:54 PM 63.0 °F 44.1 °F 50% 30.01 in 8.0 mi SW 3.5 mph - N/A   Clear
2:54 PM 64.0 °F 44.1 °F 48% 30.00 in 7.0 mi Calm Calm - N/A   Clear
3:54 PM 63.0 °F 44.1 °F 50% 29.99 in 8.0 mi NW 4.6 mph - N/A   Clear
4:54 PM 60.1 °F 43.0 °F 53% 30.00 in 8.0 mi NW 3.5 mph - N/A   Clear
5:54 PM 59.0 °F 41.0 °F 51% 29.98 in 9.0 mi Calm Calm - N/A   Clear
6:54 PM 57.9 °F 41.0 °F 53% 29.99 in 9.0 mi NNE 3.5 mph - N/A   Clear
7:54 PM 57.0 °F 41.0 °F 55% 29.99 in 9.0 mi NNE 3.5 mph - N/A   Clear
8:54 PM 57.9 °F 43.0 °F 58% 29.99 in 9.0 mi ESE 3.5 mph - N/A   Clear
9:54 PM 57.9 °F 42.1 °F 56% 29.99 in 8.0 mi East 4.6 mph - N/A   Clear
10:54 PM 55.9 °F 42.1 °F 60% 29.98 in 8.0 mi Calm Calm - N/A   Clear
11:54 PM 53.1 °F 39.9 °F 61% 29.98 in 8.0 mi NE 3.5 mph - N/A   Clear